(51072) = 2000 GX159

Discovered at Socorro on 2000-04-07 by LINEAR.

Orbit

Orbit type: Main Belt

Note: WebGL enabled browser required.

epoch2023-09-13.0
epoch JD2460200.5
perihelion date2022-08-01.86651
perihelion JD2459793.36651
argument of perihelion (°)200.88763
ascending node (°)344.05670
inclination (°)8.94579
eccentricity0.0421336
perihelion distance (AU)3.0342512
Tisserand w.r.t. Jupiter3.2
ΔV w.r.t. Earth (km/sec)11.1
semimajor axis (AU)3.1677186
mean anomaly (°)71.17390
mean daily motion (°/day)0.17481710
aphelion distance (AU)3.301
period (years)5.64
P-vector [x]-0.99508763
P-vector [y]-0.05319630
P-vector [z]-0.08349114
Q-vector [x]0.08930936
Q-vector [y]-0.84625289
Q-vector [z]-0.52524269
absolute magnitude14.29
phase slope0.15
uncertainty0
referenceMPEC 2024-A34
observations used1212
oppositions21
arc length (days)9793
first opposition used1996
last opposition used2023
residual rms (arc-secs)0.69
perturbers coarse indicatorM-v
perturbers precise indicator003Ek
first observation date used1996-09-18.0
last observation date used2023-07-12.0
computer nameMPCLINUX
JD of orbit computation2456966.783900
perihelion JD uncertainty (days)3.5516E-04
argument of perihelion uncertainty (°)6.6665E-05
ascending node uncertainty (°)2.8107E-05
inclination uncertainty (°)7.8421E-06
eccentricity uncertainty 6.7241E-08
perihelion distance uncertainty (AU)2.1314E-07
Minimum Orbit Intersection Distances (in AU)
for orbit epoch: 2460200.5, reference: E2024-A34
Mercury2.61451
Venus2.31938
Earth2.0376
Mars1.37951
Jupiter1.67705
Saturn5.93849
Uranus15.4032
Neptune26.5721

Observations

1236 total observations over interval: 1996 09 18.61586 – 2023 07 12.840127
These data are available for download (format description).

Date (UT) J2000 RA J2000 Dec Magn Location Ref
1996 09 18.61586 22 03 59.10 -13 43 58.6   327 – Peking Observatory, Xinglong Station MPS 63034
1996 09 18.63449 22 03 58.40 -13 43 59.5   327 – Peking Observatory, Xinglong Station MPS 63034
1996 09 18.65225 22 03 57.65 -13 43 59.3 20.1 V 327 – Peking Observatory, Xinglong Station MPS 63034
1999 01 10.29825 08 17 48.27 +29 33 30.5 18.1 R 699 – Lowell Observatory-LONEOS MPS 63034
1999 01 10.32375 08 17 46.85 +29 33 32.0   699 – Lowell Observatory-LONEOS MPS 63034
1999 01 10.34928 08 17 45.41 +29 33 36.4   699 – Lowell Observatory-LONEOS MPS 63034
2000 04 07.27417 13 04 44.04 -15 18 06.8 18.4   704 – Lincoln Laboratory ETS, New Mexico MPS 14459
2000 04 07.28818 13 04 43.29 -15 18 03.9 18.4   704 – Lincoln Laboratory ETS, New Mexico MPS 14459
2000 04 07.30220 13 04 42.63 -15 18 01.3 18.3   704 – Lincoln Laboratory ETS, New Mexico MPS 14459
2000 04 07.31631 13 04 41.84 -15 17 58.5 18.7   704 – Lincoln Laboratory ETS, New Mexico MPS 14459
2000 04 07.33032 13 04 41.18 -15 17 57.4 18.7   704 – Lincoln Laboratory ETS, New Mexico MPS 14459
2000 04 12.37858 13 00 30.58 -15 04 35.9 18.1   608 – Haleakala-AMOS MPS 14459
2000 04 12.38983 13 00 30.02 -15 04 33.9 18.1   608 – Haleakala-AMOS MPS 14459
2000 04 12.40083 13 00 29.44 -15 04 32.0 18.3   608 – Haleakala-AMOS MPS 14459
2000 04 28.14637 12 48 37.17 -14 15 56.5 17.9   704 – Lincoln Laboratory ETS, New Mexico MPS 14459
2000 04 28.15981 12 48 36.67 -14 15 53.3 18.1   704 – Lincoln Laboratory ETS, New Mexico MPS 14459
2000 04 28.17305 12 48 35.99 -14 15 51.2 17.6   704 – Lincoln Laboratory ETS, New Mexico MPS 14459
2000 04 28.18598 12 48 35.57 -14 15 47.5 17.8   704 – Lincoln Laboratory ETS, New Mexico MPS 14459
2000 04 28.19893 12 48 35.02 -14 15 46.1 18.1   704 – Lincoln Laboratory ETS, New Mexico MPS 14459
2000 05 04.21278 12 44 55.83 -13 57 12.0 18.6 R 699 – Lowell Observatory-LONEOS MPS 14459
2000 05 04.22545 12 44 55.38 -13 57 10.8   699 – Lowell Observatory-LONEOS MPS 14459
2000 05 04.23814 12 44 54.95 -13 57 08.4   699 – Lowell Observatory-LONEOS MPS 14459
2000 05 04.25082 12 44 54.56 -13 57 06.7   699 – Lowell Observatory-LONEOS MPS 14459
2000 05 06.22263 12 43 51.36 -13 51 20.1 18.6   704 – Lincoln Laboratory ETS, New Mexico MPS 14459
2000 05 06.23471 12 43 50.95 -13 51 18.3 19.5   704 – Lincoln Laboratory ETS, New Mexico MPS 14459
2000 05 06.24681 12 43 50.54 -13 51 15.6 19.2   704 – Lincoln Laboratory ETS, New Mexico MPS 14459
2001 06 25.33301 19 18 36.44 -33 54 34.7 19.1   644 – Palomar Mountain/NEAT MPS 39047
2001 06 25.33416 19 18 36.40 -33 54 33.4 19.4   644 – Palomar Mountain/NEAT MPS 39047
2001 06 25.34367 19 18 35.85 -33 54 35.0 19.0   644 – Palomar Mountain/NEAT MPS 39047
2001 06 25.34482 19 18 35.83 -33 54 34.4 19.1   644 – Palomar Mountain/NEAT MPS 39047
2001 06 25.35437 19 18 35.29 -33 54 36.0 19.3   644 – Palomar Mountain/NEAT MPS 39047
2001 06 25.35558 19 18 35.25 -33 54 35.1 19.1   644 – Palomar Mountain/NEAT MPS 39047
2001 07 08.30864 19 06 42.84 -34 02 54.0 19.2   644 – Palomar Mountain/NEAT MPS 39047
2001 07 08.31897 19 06 42.24 -34 02 54.0 18.9   644 – Palomar Mountain/NEAT MPS 39047
2001 07 08.32939 19 06 41.64 -34 02 54.0 18.9   644 – Palomar Mountain/NEAT MPS 39047
2002 08 12.31263 00 13 39.37 +03 08 53.7 19.4   704 – Lincoln Laboratory ETS, New Mexico MPS 63034
2002 08 12.32759 00 13 39.15 +03 08 56.0 20.3   704 – Lincoln Laboratory ETS, New Mexico MPS 63034
2002 08 12.34262 00 13 38.90 +03 08 56.9 20.2   704 – Lincoln Laboratory ETS, New Mexico MPS 63034
2002 08 12.35759 00 13 38.54 +03 08 57.4 19.6   704 – Lincoln Laboratory ETS, New Mexico MPS 63034
2002 08 18.60247 00 11 11.82 +03 09 22.2 20.1   608 – Haleakala-AMOS MPS 63034
2002 08 18.61294 00 11 11.57 +03 09 22.7 20.4   608 – Haleakala-AMOS MPS 63034
2002 08 18.62346 00 11 11.22 +03 09 22.9 20.6   608 – Haleakala-AMOS MPS 63034
2002 09 05.27611 00 00 47.50 +02 48 34.2 19.1   704 – Lincoln Laboratory ETS, New Mexico MPS 61041
2002 09 05.27623 00 00 47.47 +02 48 34.1 19.0   704 – Lincoln Laboratory ETS, New Mexico MPS 61041
2002 09 05.29021 00 00 46.89 +02 48 32.2 19.7   704 – Lincoln Laboratory ETS, New Mexico MPS 61041
2002 09 05.31816 00 00 45.68 +02 48 28.5 19.6   704 – Lincoln Laboratory ETS, New Mexico MPS 61041
2002 09 05.31828 00 00 45.64 +02 48 28.3 19.6   704 – Lincoln Laboratory ETS, New Mexico MPS 61041
2002 09 05.33217 00 00 45.06 +02 48 26.0 19.9   704 – Lincoln Laboratory ETS, New Mexico MPS 61041
2002 09 05.33230 00 00 45.04 +02 48 26.9 19.8   704 – Lincoln Laboratory ETS, New Mexico MPS 61041
2002 09 07.29482 23 59 20.48 +02 44 23.0 19.6   704 – Lincoln Laboratory ETS, New Mexico MPS 61041
2002 09 07.30882 23 59 19.83 +02 44 20.5 19.1   704 – Lincoln Laboratory ETS, New Mexico MPS 61041
2002 09 07.32294 23 59 19.19 +02 44 19.3 19.3   704 – Lincoln Laboratory ETS, New Mexico MPS 61041
2002 09 14.38532 23 53 59.43 +02 27 30.3 18.7   644 – Palomar Mountain/NEAT MPS 61041
2002 09 14.40858 23 53 58.32 +02 27 26.7 18.4   644 – Palomar Mountain/NEAT MPS 61041
2002 09 14.43085 23 53 57.26 +02 27 23.4 18.5   644 – Palomar Mountain/NEAT MPS 61041
2002 09 15.50255 23 53 07.24 +02 24 36.3 19.6   608 – Haleakala-AMOS MPS 61041
2002 09 15.51291 23 53 06.82 +02 24 34.5 19.9   608 – Haleakala-AMOS MPS 61041
2002 09 15.52379 23 53 06.26 +02 24 32.4 19.7   608 – Haleakala-AMOS MPS 61041
2002 09 30.29941 23 41 37.57 +01 42 56.6 19.4   704 – Lincoln Laboratory ETS, New Mexico MPS 63034
2002 09 30.31366 23 41 36.94 +01 42 53.2 18.9   704 – Lincoln Laboratory ETS, New Mexico MPS 63034
2002 09 30.32791 23 41 36.28 +01 42 50.9 19.2   704 – Lincoln Laboratory ETS, New Mexico MPS 63034
2002 10 04.25218 23 38 43.88 +01 31 45.8 18.7   704 – Lincoln Laboratory ETS, New Mexico MPS 63034
2002 10 04.26783 23 38 43.23 +01 31 43.2 19.2   704 – Lincoln Laboratory ETS, New Mexico MPS 63034
2002 10 04.28363 23 38 42.51 +01 31 40.5 19.3   704 – Lincoln Laboratory ETS, New Mexico MPS 63034
2002 10 04.29929 23 38 41.82 +01 31 38.6 19.3   704 – Lincoln Laboratory ETS, New Mexico MPS 63034
2002 10 04.31504 23 38 41.09 +01 31 35.6 19.2   704 – Lincoln Laboratory ETS, New Mexico MPS 63034
2002 10 10.287840 23 34 37.425 +01 15 40.27 19.28 V 645 – Apache Point-Sloan Digital Sky Survey MPS 81240
2002 10 10.291312 23 34 37.287 +01 15 39.80 20.00   645 – Apache Point-Sloan Digital Sky Survey MPS 81240
2002 10 31.16636 23 24 49.88 +00 38 39.3 19.5   704 – Lincoln Laboratory ETS, New Mexico MPS 65669
2002 10 31.177140 23 24 49.646 +00 38 39.33 19.66 V 645 – Apache Point-Sloan Digital Sky Survey MPS 81240
2002 10 31.180612 23 24 49.578 +00 38 39.21 20.28   645 – Apache Point-Sloan Digital Sky Survey MPS 81240
2002 10 31.20097 23 24 49.21 +00 38 39.3 20.0   704 – Lincoln Laboratory ETS, New Mexico MPS 65669
2002 10 31.21824 23 24 48.93 +00 38 37.3 19.6   704 – Lincoln Laboratory ETS, New Mexico MPS 65669
2002 10 31.23533 23 24 48.60 +00 38 37.1 19.9   704 – Lincoln Laboratory ETS, New Mexico MPS 65669
2003 11 19.26247 04 33 25.42 +34 42 45.8 19.0   704 – Lincoln Laboratory ETS, New Mexico MPS 91517
2003 11 19.27507 04 33 24.67 +34 42 45.8 19.3   704 – Lincoln Laboratory ETS, New Mexico MPS 91517
2003 11 19.28755 04 33 23.99 +34 42 45.0 20.2   704 – Lincoln Laboratory ETS, New Mexico MPS 91517
2003 11 19.30018 04 33 23.27 +34 42 45.5 18.9   704 – Lincoln Laboratory ETS, New Mexico MPS 91517
2003 11 19.31293 04 33 22.53 +34 42 44.9 19.1   704 – Lincoln Laboratory ETS, New Mexico MPS 91517
2003 12 03.25993 04 20 04.54 +34 26 55.1 18.9   704 – Lincoln Laboratory ETS, New Mexico MPS 93297
2003 12 03.27316 04 20 03.78 +34 26 52.8 19.1   704 – Lincoln Laboratory ETS, New Mexico MPS 93297
2003 12 03.28618 04 20 03.04 +34 26 52.4 19.4   704 – Lincoln Laboratory ETS, New Mexico MPS 93297
2003 12 03.31234 04 20 01.47 +34 26 48.8 19.0   704 – Lincoln Laboratory ETS, New Mexico MPS 93297
2003 12 17.25748 04 07 22.28 +33 47 38.5 19.0   704 – Lincoln Laboratory ETS, New Mexico MPS 94288
2003 12 17.27118 04 07 21.52 +33 47 35.8 19.0   704 – Lincoln Laboratory ETS, New Mexico MPS 94288
2003 12 17.28389 04 07 20.90 +33 47 33.6 20.5   704 – Lincoln Laboratory ETS, New Mexico MPS 94288
